[[{"header":{"parameterUnit":"m.s-1","parameterCategory":1,"la1":30.2991,"la2":30.254,"lo1":-89.0895,"lo2":-89.0444,"dy":0.0017,"dx":0.0017,"nx":28,"ny":28,"refTime":"2023-04-26T15:00:00:Z","depth":0,"parameterNumber":2,"parameterNumberName":"U-component_of_WINDS"},"data":[0,0,0,0,0,0,0,0,0,0,0,0,0,0,0,0,0,0,0,0,0,0,0,0,0,0,0,0,0,0,0,0,0,0,0,0,0,0,0,0,0,0,0,0,0,0,0,0,0,0,0,0,0,0,0,0,0,0,-0.5074,-0.5076,0,-0.5171,-0.5172,-0.5173,-0.527,-0.5272,-0.5273,-0.5274,-0.5368,-0.5369,-0.5371,0,0,0,0,0,0,0,0,0,0,0,0,0,-0.4966,-0.4968,-0.5074,-0.5076,-0.5077,-0.5171,-0.5172,-0.5173,-0.527,-0.5272,-0.5273,-0.5275,-0.5368,-0.5369,-0.5371,0,0,0,0,0,0,0,0,0,0,0,0,0,-0.5033,-0.4968,-0.5074,-0.5137,-0.5143,-0.517,-0.5172,-0.5174,-0.527,-0.5272,-0.5274,-0.5276,-0.5367,-0.5369,-0.5371,-0.5343,0,0,-0.5377,-0.5378,0,0,0,0,0,0,0,0,-0.5029,-0.5036,-0.5126,-0.5132,-0.514,-0.5211,-0.5168,-0.523,-0.5269,-0.5222,-0.5274,-0.5277,-0.5314,-0.532,-0.5334,-0.5347,-0.5351,-0.5377,-0.5378,-0.5379,-0.5379,0,0,0,0,0,0,0,-0.5024,-0.5033,-0.5112,-0.5127,-0.5136,-0.5157,-0.5169,-0.518,-0.5255,-0.5226,-0.5233,-0.5244,-0.5318,-0.5332,-0.5337,-0.5353,-0.5377,-0.5379,-0.538,-0.5381,-0.5341,-0.5339,0,0,0,0,0,0,-0.5011,-0.5028,-0.5109,-0.5115,-0.5088,-0.5157,-0.517,-0.5186,-0.5256,-0.5268,-0.5242,-0.5248,-0.5328,-0.5334,-0.534,-0.5309,-0.5379,-0.5381,-0.5382,-0.5344,-0.5341,-0.5339,0,0,0,0,0,0,-0.5008,-0.5017,-0.5106,-0.5074,-0.5087,-0.5157,-0.5174,-0.5187,-0.5201,-0.5268,-0.5281,-0.5243,-0.5329,-0.5338,-0.5341,-0.5313,-0.5382,-0.5383,-0.5346,-0.5343,-0.534,-0.5246,0,0,0,0,0,0,-0.5005,-0.5016,-0.5008,-0.5073,-0.5088,-0.5106,-0.5172,-0.5187,-0.5204,-0.5213,-0.5272,-0.5284,-0.5332,-0.5337,-0.5342,-0.5317,-0.5385,-0.5349,-0.5345,-0.5341,-0.5252,-0.524,-0.523,0,0,0,0,0,-0.5,-0.4978,-0.5007,-0.5017,-0.5081,-0.5105,-0.5113,-0.5171,-0.5202,-0.5193,-0.5235,-0.5282,-0.5315,-0.5337,-0.5343,-0.5318,-0.5351,-0.5346,-0.5341,-0.5257,-0.5243,-0.523,0,0,0,0,0,0,-0.4909,-0.4988,-0.5021,-0.502,-0.5055,-0.5121,-0.5113,-0.5154,-0.518,-0.5187,-0.5255,-0.5267,-0.5261,-0.529,-0.5312,-0.5291,-0.5339,-0.5335,-0.5273,-0.526,-0.5249,-0.5242,-0.5386,0,0,0,0,0,-0.4888,-0.4903,-0.4971,-0.4963,-0.4979,-0.5042,-0.5055,-0.5096,-0.5134,-0.5149,-0.5191,-0.5225,-0.5242,-0.5253,-0.5273,-0.5256,-0.5268,-0.5242,-0.5231,-0.5221,-0.5217,-0.5205,-0.5193,-0.5323,-0.5323,-0.5323,0,0,-0.4846,-0.4892,-0.4897,-0.4946,-0.4978,-0.4988,-0.5054,-0.5065,-0.5072,-0.515,-0.5155,-0.5186,-0.5228,-0.5219,-0.5218,-0.5243,-0.5183,-0.5215,-0.5207,-0.5208,-0.5199,-0.5186,-0.5175,-0.5319,-0.532,-0.532,0,0,-0.4775,-0.4813,-0.4808,-0.4837,-0.4884,-0.4926,-0.4924,-0.4983,-0.5007,-0.5013,-0.507,-0.5078,-0.5109,-0.5134,-0.5151,-0.5083,-0.5125,-0.5087,-0.503,-0.5017,-0.5007,-0.4998,-0.497,-0.4959,-0.5083,-0.5083,-0.5082,0,-0.4717,-0.4738,-0.48,-0.4805,-0.4823,-0.4893,-0.4886,-0.4911,-0.4962,-0.4971,-0.4999,-0.5035,-0.5068,-0.5064,-0.5047,-0.5059,-0.5056,-0.5081,-0.5004,-0.4995,-0.4988,-0.4962,-0.4951,-0.5078,-0.5078,-0.5079,-0.5079,0,-0.4662,-0.4675,-0.4665,-0.4711,-0.4728,-0.4727,-0.4785,-0.4794,-0.4831,-0.4867,-0.4869,-0.4911,-0.4938,-0.494,-0.4978,-0.494,-0.4953,-0.4991,-0.5041,-0.4969,-0.4946,-0.4937,-0.507,-0.5072,-0.5074,-0.5075,0,0,-0.454,-0.4616,-0.4611,-0.4631,-0.4685,-0.4695,-0.4694,-0.4722,-0.4725,-0.4756,-0.4755,-0.4776,-0.481,-0.4829,-0.4869,-0.4858,-0.4795,-0.4897,-0.4899,-0.4874,-0.4751,-0.472,-0.4708,-0.4824,-0.4822,-0.4821,-0.4746,0,-0.4476,-0.4483,-0.4535,-0.4524,-0.4534,-0.4598,-0.4597,-0.4627,-0.466,-0.4671,-0.4706,-0.4719,-0.4765,-0.4776,-0.4768,-0.4805,-0.4771,-0.4811,-0.482,-0.4819,-0.4806,-0.4696,-0.4666,-0.4594,-0.4738,-0.4736,-0.4735,0,-0.4405,-0.4429,-0.4419,-0.4468,-0.4474,-0.4473,-0.4499,-0.451,-0.4543,-0.4568,-0.4585,-0.463,-0.4629,-0.4675,-0.4672,-0.4697,-0.4703,-0.4721,-0.4719,-0.4721,-0.4772,-0.4693,-0.4572,-0.456,-0.4722,-0.4723,-0.4724,0,-0.4312,-0.4343,-0.434,-0.4355,-0.4413,-0.4409,-0.4433,-0.4469,-0.448,-0.4501,-0.4508,-0.4529,-0.454,-0.4554,-0.46,-0.463,-0.459,-0.4641,-0.4606,-0.4605,-0.4595,-0.4595,-0.4471,-0.4602,-0.4602,-0.4602,-0.4602,0,-0.4235,-0.4226,-0.4298,-0.4296,-0.4285,-0.4344,-0.433,-0.436,-0.439,-0.4392,-0.4448,-0.4448,-0.4511,-0.4516,-0.4552,-0.4541,-0.4547,-0.4563,-0.4573,-0.4557,-0.4555,-0.4561,-0.4567,-0.4599,-0.46,-0.46,-0.4601,0,-0.4131,-0.418,-0.418,-0.4233,-0.4245,-0.4235,-0.4279,-0.4277,-0.4311,-0.4312,-0.4316,-0.4369,-0.4378,-0.4426,-0.4446,-0.447,-0.4445,-0.4465,-0.4433,-0.4439,-0.4401,-0.4402,-0.4276,-0.426,-0.4402,-0.4401,-0.44,0,-0.4078,-0.4072,-0.4123,-0.4128,-0.4149,-0.4157,-0.4168,-0.4223,-0.4231,-0.4265,-0.4258,-0.4271,-0.4285,-0.4295,-0.4334,-0.4348,-0.4368,-0.4322,-0.437,-0.4353,-0.4363,-0.4362,-0.4359,-0.4311,-0.431,-0.4308,-0.4307,0,-0.3978,-0.4001,-0.4015,-0.4035,-0.4046,-0.4064,-0.4086,-0.4087,-0.4147,-0.4152,-0.4162,-0.4172,-0.4191,-0.4201,-0.4221,-0.4242,-0.4282,-0.4291,-0.4283,-0.4267,-0.4247,-0.4253,-0.4403,-0.4294,-0.4295,-0.4296,-0.4297,-0.4297,-0.3896,-0.3891,-0.3925,-0.3937,-0.3958,-0.3976,-0.3975,-0.4008,-0.4017,-0.4037,-0.4068,-0.4071,-0.4099,-0.413,-0.4147,-0.4148,-0.4173,-0.4162,-0.4159,-0.4155,-0.4145,-0.4248,-0.4153,-0.4153,-0.4153,-0.4154,-0.4154,0,-0.3796,-0.382,-0.383,-0.3857,-0.3864,-0.3902,-0.3926,-0.3929,-0.3932,-0.3956,-0.3967,-0.3974,-0.3983,-0.4021,-0.4033,-0.4026,-0.4045,-0.4027,-0.4028,-0.403,-0.4125,-0.4129,-0.4012,-0.4012,-0.4012,-0.4012,-0.4012,-0.4012,-0.3745,-0.3737,-0.3763,-0.3764,-0.3787,-0.3792,-0.3801,-0.3816,-0.3834,-0.384,-0.3848,-0.3872,-0.39,-0.3913,-0.3921,-0.3932,-0.3932,-0.3908,-0.3924,-0.4011,-0.4025,-0.4038,-0.4042,-0.3908,-0.3908,-0.3829,-0.3828,-0.3828]},{"header":{"parameterUnit":"m.s-1","parameterCategory":1,"la1":30.2991,"la2":30.254,"lo1":-89.0895,"lo2":-89.0444,"dy":0.0017,"dx":0.0017,"nx":28,"ny":28,"refTime":"2023-04-26T15:00:00:Z","depth":0,"parameterNumber":3,"parameterNumberName":"V-component_of_WINDS"},"data":[0,0,0,0,0,0,0,0,0,0,0,0,0,0,0,0,0,0,0,0,0,0,0,0,0,0,0,0,0,0,0,0,0,0,0,0,0,0,0,0,0,0,0,0,0,0,0,0,0,0,0,0,0,0,0,0,0,0,-7.7554,-7.756,0,-7.8117,-7.8123,-7.813,-7.8251,-7.8247,-7.8243,-7.8239,-7.8806,-7.8825,-7.8843,0,0,0,0,0,0,0,0,0,0,0,0,0,-7.6575,-7.6592,-7.7553,-7.756,-7.7567,-7.8116,-7.8124,-7.8131,-7.8252,-7.8247,-7.8242,-7.8237,-7.88,-7.8823,-7.8845,0,0,0,0,0,0,0,0,0,0,0,0,0,-7.7054,-7.6597,-7.7552,-7.7694,-7.7712,-7.8114,-7.8124,-7.8133,-7.8253,-7.8247,-7.8241,-7.8235,-7.8793,-7.882,-7.8848,-7.9146,0,0,-7.8935,-7.8947,0,0,0,0,0,0,0,0,-7.7027,-7.709,-7.7666,-7.7685,-7.7706,-7.8108,-7.7987,-7.8472,-7.8255,-7.8047,-7.8239,-7.8232,-7.8578,-7.8624,-7.8743,-7.9172,-7.9197,-7.8937,-7.8955,-7.8967,-7.8975,0,0,0,0,0,0,0,-7.6994,-7.7067,-7.7776,-7.7674,-7.7699,-7.7727,-7.7788,-7.8079,-7.834,-7.8065,-7.8075,-7.8141,-7.8588,-7.8715,-7.8757,-7.9205,-7.8937,-7.8962,-7.8979,-7.899,-7.9909,-7.9916,0,0,0,0,0,0,-7.6937,-7.7038,-7.7758,-7.7793,-7.7345,-7.775,-7.7818,-7.7985,-7.8337,-7.8385,-7.8145,-7.8144,-7.867,-7.8724,-7.8777,-7.9151,-7.8967,-7.8993,-7.901,-7.9901,-7.991,-7.9918,0,0,0,0,0,0,-7.6915,-7.7,-7.7735,-7.7419,-7.7515,-7.7773,-7.7959,-7.7999,-7.8127,-7.8398,-7.8444,-7.8228,-7.8667,-7.8737,-7.9055,-7.9172,-7.9006,-7.9032,-7.9893,-7.9904,-7.9914,-7.9899,0,0,0,0,0,0,-7.6887,-7.6991,-7.7109,-7.7421,-7.7531,-7.8006,-7.7966,-7.8015,-7.8176,-7.818,-7.8488,-7.8533,-7.8668,-7.9012,-7.9083,-7.9208,-7.9054,-7.9883,-7.9898,-7.9911,-7.989,-7.9908,-7.9924,0,0,0,0,0,-7.6851,-7.7079,-7.7114,-7.72,-7.7684,-7.8012,-7.8075,-7.8228,-7.8185,-7.8305,-7.8479,-7.8523,-7.9147,-7.9043,-7.9124,-7.926,-7.9877,-7.9894,-7.991,-7.9883,-7.9905,-7.9923,0,0,0,0,0,0,-7.6771,-7.7123,-7.7165,-7.7502,-7.7727,-7.8032,-7.8188,-7.8246,-7.8486,-7.8479,-7.8656,-7.8724,-7.9031,-7.9177,-7.9054,-7.9567,-7.951,-7.9543,-7.9461,-7.9485,-7.9501,-7.946,-7.9077,0,0,0,0,0,-7.6793,-7.7033,-7.7326,-7.7595,-7.7706,-7.7927,-7.8076,-7.8175,-7.8413,-7.8508,-7.8706,-7.8933,-7.9181,-7.934,-7.9583,-7.9911,-7.998,-8.0044,-8.0061,-8.0073,-8.0101,-8.0286,-8.0319,-7.9973,-7.9973,-7.9972,0,0,-7.684,-7.7062,-7.7202,-7.7585,-7.7771,-7.8013,-7.8006,-7.8263,-7.8444,-7.8546,-7.886,-7.9012,-7.9277,-7.9602,-7.9754,-7.9733,-8.0211,-8.0094,-8.0102,-8.0124,-8.0307,-8.0339,-8.0368,-7.9984,-7.9982,-7.998,0,0,-7.7051,-7.7242,-7.7489,-7.7676,-7.7959,-7.8105,-7.8163,-7.8462,-7.8569,-7.8886,-7.8969,-7.9184,-7.9607,-7.9794,-7.9944,-8.0226,-8.0276,-8.0299,-8.0387,-8.0566,-8.0594,-8.0619,-8.0721,-8.0755,-8.0325,-8.0326,-8.0326,0,-7.7073,-7.7446,-7.7607,-7.7862,-7.8028,-7.8134,-7.8385,-7.8557,-7.8903,-7.9014,-7.8985,-7.952,-7.9705,-8.0076,-8.0145,-8.0262,-8.0334,-8.0266,-8.0577,-8.0604,-8.063,-8.0729,-8.0767,-8.0327,-8.0327,-8.0327,-8.0326,0,-7.746,-7.7716,-7.788,-7.8217,-7.8401,-7.8651,-7.8849,-7.9015,-7.9097,-7.9245,-7.9567,-7.9794,-8.0085,-8.018,-8.0261,-8.0563,-8.0541,-8.0542,-8.0489,-8.0661,-8.0758,-8.0797,-8.0329,-8.0328,-8.0328,-8.0327,0,0,-7.7636,-7.806,-7.8118,-7.8273,-7.8594,-7.8794,-7.9048,-7.9337,-7.9477,-7.9711,-7.9929,-8.0285,-8.0289,-8.0459,-8.0562,-8.0719,-8.093,-8.0702,-8.0711,-8.0738,-8.1277,-8.1276,-8.1317,-8.0964,-8.0972,-8.0978,-8.1256,0,-7.7887,-7.8351,-7.8504,-7.8887,-7.9127,-7.9232,-7.9454,-7.9673,-7.9817,-8.0039,-8.0197,-8.0448,-8.0434,-8.0538,-8.0697,-8.087,-8.1041,-8.0852,-8.1167,-8.1176,-8.11,-8.1368,-8.1367,-8.1618,-8.1294,-8.1301,-8.1305,0,-7.8243,-7.8488,-7.8897,-7.919,-7.9296,-7.9493,-7.9771,-7.9982,-8.0232,-8.0326,-8.0517,-8.0608,-8.0876,-8.0805,-8.1176,-8.1045,-8.1182,-8.1286,-8.1299,-8.1336,-8.1253,-8.1413,-8.1702,-8.174,-8.1366,-8.1361,-8.1357,0,-7.8334,-7.8765,-7.9066,-7.9195,-7.9543,-7.968,-7.983,-8.0075,-8.0239,-8.048,-8.0589,-8.0855,-8.1002,-8.1206,-8.1366,-8.1299,-8.1723,-8.1665,-8.1808,-8.1804,-8.1894,-8.1887,-8.221,-8.1978,-8.1978,-8.1977,-8.1976,0,-7.86,-7.8846,-7.9112,-7.9297,-7.9576,-7.9748,-8.0018,-8.0174,-8.0391,-8.0607,-8.0711,-8.091,-8.1109,-8.1334,-8.146,-8.1749,-8.1813,-8.1896,-8.1927,-8.1889,-8.1878,-8.1982,-8.197,-8.1987,-8.1985,-8.1983,-8.1981,0,-7.8749,-7.8937,-7.9273,-7.9576,-7.9658,-7.985,-8.0108,-8.0291,-8.044,-8.0712,-8.0785,-8.1018,-8.1288,-8.1468,-8.1812,-8.1897,-8.2212,-8.2237,-8.2129,-8.2144,-8.2278,-8.2263,-8.2682,-8.2746,-8.2468,-8.247,-8.2472,0,-7.8907,-7.91,-7.9425,-7.958,-7.9732,-7.9978,-8.0148,-8.0323,-8.0495,-8.0795,-8.0941,-8.1219,-8.1452,-8.1878,-8.2076,-8.2339,-8.2373,-8.2502,-8.2414,-8.2369,-8.2378,-8.2365,-8.2386,-8.2516,-8.2518,-8.252,-8.2521,0,-7.9169,-7.9254,-7.9496,-7.9772,-7.9973,-8.0197,-8.0422,-8.0541,-8.0755,-8.0942,-8.1223,-8.1403,-8.1756,-8.2031,-8.2313,-8.2465,-8.2529,-8.2547,-8.2595,-8.2559,-8.2489,-8.253,-8.2169,-8.2537,-8.2536,-8.2535,-8.2534,-8.2533,-7.933,-7.9508,-7.9765,-8.0032,-8.022,-8.0428,-8.0616,-8.079,-8.1028,-8.1333,-8.1421,-8.1712,-8.1957,-8.2344,-8.25,-8.2729,-8.2716,-8.2783,-8.2801,-8.2816,-8.2818,-8.245,-8.278,-8.278,-8.278,-8.278,-8.278,0,-7.96,-7.9771,-8.0015,-8.0329,-8.0538,-8.0584,-8.0835,-8.1006,-8.1264,-8.1488,-8.1716,-8.2037,-8.2304,-8.2524,-8.2798,-8.2939,-8.2975,-8.3005,-8.2998,-8.3032,-8.2813,-8.2746,-8.2972,-8.2972,-8.2972,-8.2971,-8.2971,-8.2971,-7.9765,-8.0068,-8.0183,-8.058,-8.0749,-8.1039,-8.1179,-8.1371,-8.1552,-8.1908,-8.2132,-8.2274,-8.2497,-8.2789,-8.3035,-8.3093,-8.3189,-8.3213,-8.3277,-8.3068,-8.3047,-8.3026,-8.2964,-8.3232,-8.3233,-8.3477,-8.3479,-8.3481]}]]